Weather Roundup
Issued by NWS Chicago, IL

Home | Current Version | Previous Version | Text Only | Print | Product List | Glossary On
Versions: 1 2 3 4 5 6 7 8 9 10 11 12 13 14 15 16 17 18 19 20 21 22 23 24 25 26 27 28 29 30 31 32 33 34 35 36 37 38 39 40 41 42 43 44 45 46 47 48 49 50
000
NZUS59 KLOT 211410
HRRLOT

CHICAGO AREA WEATHER ROUNDUP
NATIONAL WEATHER SERVICE CHICAGO/ROMEOVILLE IL
800 AM CST SUN DEC 21 2014

NOTE: "FAIR" INDICATES FEW OR NO CLOUDS BELOW 12,000 FEET WITH NO
SIGNIFICANT WEATHER AND/OR OBSTRUCTIONS TO VISIBILITY.

* THESE STATIONS ARE NOT UNDER NWS QUALITY CONTROL. THEY ALSO MAY NOT
  REPORT WEATHER SUCH AS PRECIPITATION OR FOG.

ILZ005-006-012>014-019>023-211500-
NORTHEAST ILLINOIS

CITY           SKY/WX    TMP DP  RH WIND       PRES   REMARKS
OHARE          CLOUDY    32  27  81 S8        30.20F WCI  25
MIDWAY         CLOUDY    34  27  75 S10       30.22F WCI  26
AURORA         CLOUDY    33  28  81 SE10      30.19F HAZE    WCI  25
LANSING*       CLOUDY    32  27  83 S6        30.24S WCI  26
JOLIET*        CLOUDY    32  28  85 SE6       30.22S WCI  26
WAUKEGAN         N/A     32  27  81 S9        30.18F WCI  24
DUPAGE AIRPORT CLOUDY    32  27  81 S10       30.18F WCI  24
WHEELING       CLOUDY    33  27  78 S10       30.21F WCI  25
KANKAKEE*      CLOUDY    32  28  86 SE9       30.24S WCI  24
MORRIS*        CLOUDY    32  31  94 SE9       30.20F WCI  24
LEWIS AIRPORT* CLOUDY    32  28  86 S14       30.21F WCI  22
NORTHERLY IS     N/A     33  26  76 S3          N/A
$$

WIZ051-052-058>065-066-070>072-211500-
SOUTHEAST WISCONSIN

CITY           SKY/WX    TMP DP  RH WIND       PRES   REMARKS
MILWAUKEE      CLOUDY    32  26  78 S10       30.17F WCI  24
KENOSHA*       CLOUDY    33  28  81 S8        30.18F WCI  26
RACINE*        CLOUDY    33  27  78 S9        30.19F WCI  25
BURLINGTON     CLOUDY    31  28  89 S6        30.16F WCI  25
WAUKESHA       CLOUDY    30  27  86 S7        30.16F FOG     WCI  23
WEST BEND      CLOUDY    32  28  86 S6        30.14F FOG     WCI  26
$$

INZ001>003-010>013-019-020-211500-
NORTHWEST INDIANA

CITY           SKY/WX    TMP DP  RH WIND       PRES   REMARKS
GARY*          CLOUDY    34  25  69 SE8       30.25R WCI  27
MICHIGAN CITY* NOT AVBL
RENSSELAER*    NOT AVBL
VALPARAISO     CLOUDY    30  26  85 S8        30.25S FOG     WCI  22
$$

LMZ740>746-211500-
SOUTHERN LAKE MICHIGAN

STATION/POSITION TIME  SKY/WX   TEMP WIND        PRES    VSBY
                                AIR  DIR/SP/G
                 (UTC)          (F)  (DEG/KT/KT) (MB)    (MI)
HARRISON CRIB    1400            33  160/ 15/ 19   N/A
BURNHAM HARBOR   1400            33  150/  5/  8   N/A
CALUMET HARBOR   1400            33  170/ 10/ 13 1022.3S
BURNS HARBOR     NOT AVBL
MICHIGAN CITY    NOT AVBL
$$

ABBREVIATIONS USED IN REMARKS
   TC - TEMPERATURE IN CELSIUS
  WCI - WIND CHILL INDEX
   HX - HEAT INDEX
  VSB - VISIBILITY
$$


USA.gov is the U.S. government's official web portal to all federal, state and local government web resources and services.